FW1207 Weather Reports


Display with metric or nautical units.
time (UTC)temp
F
wind
direction
speed
MPH
gust
MPH
rain 1hr
in
rain 24hr
in
rain mn
in
humidity
%
barometer
mb
20181018045624 51 160 0.0 1.0 0.00 0.00 0.00 82 1022.4
20181018045126 51 160 0.0 0.0 0.00 0.00 0.00 81 1022.4
20181018044604 51 160 0.0 0.0 0.00 0.00 0.00 82 1022.4
20181018044102 51 160 0.0 0.0 0.00 0.00 0.00 81 1022.4
20181018043627 51 160 0.0 0.0 0.00 0.00 0.00 80 1022.4
20181018043125 52 160 0.0 0.0 0.00 0.00 0.00 80 1022.4
20181018042631 52 160 0.0 0.0 0.00 0.00 0.00 79 1022.7
20181018042126 52 160 0.0 0.0 0.00 0.00 0.00 78 1022.4
20181018041606 53 160 0.0 0.0 0.00 0.00 0.00 78 1022.4
20181018041130 53 160 0.0 0.0 0.00 0.00 0.00 77 1022.4
20181018040631 53 160 0.0 0.0 0.00 0.00 0.00 77 1022.4
20181018040133 54 160 0.0 0.0 0.00 0.00 0.00 74 1022.4
20181018035631 54 160 0.0 0.0 0.00 0.00 0.00 74 1022.7
20181018035110 54 160 0.0 0.0 0.00 0.00 0.00 72 1022.4
20181018034629 54 160 0.0 1.0 0.00 0.00 0.00 72 1022.0
20181018034105 54 161 0.0 0.0 0.00 0.00 0.00 73 1022.4
20181018033610 54 161 0.0 0.0 0.00 0.00 0.00 72 1022.7
20181018033132 54 161 0.0 0.0 0.00 0.00 0.00 71 1022.7
20181018032629 54 160 0.0 0.0 0.00 0.00 0.00 71 1022.4
20181018032128 54 187 0.0 0.0 0.00 0.00 0.00 71 1022.7
20181018031612 54 175 0.0 1.0 0.00 0.00 0.00 71 1022.4
20181018031132 55 167 0.0 0.0 0.00 0.00 0.00 71 1022.4
20181018030630 55 167 0.0 0.0 0.00 0.00 0.00 71 1022.4
20181018030132 55 163 2.0 2.0 0.00 0.00 0.00 70 1022.4
20181018025630 55 167 0.0 0.0 0.00 0.00 0.00 71 1022.4
20181018025121 55 167 0.0 0.0 0.00 0.00 0.00 71 1022.0
20181018024627 55 167 0.0 0.0 0.00 0.00 0.00 70 1022.0
20181018024126 55 167 0.0 0.0 0.00 0.00 0.00 69 1022.0
20181018023622 55 181 0.0 0.0 0.00 0.00 0.00 68 1021.7
20181018023133 55 139 0.0 0.0 0.00 0.00 0.00 70 1021.7
20181018022633 56 126 0.0 1.0 0.00 0.00 0.00 68 1021.7
20181018022125 56 160 1.0 2.0 0.00 0.00 0.00 67 1021.7
20181018021626 55 175 0.0 0.0 0.00 0.00 0.00 68 1021.7
20181018021129 55 177 0.0 0.0 0.00 0.00 0.00 69 1021.3
20181018020614 55 163 0.0 0.0 0.00 0.00 0.00 69 1021.3
20181018020113 55 155 0.0 0.0 0.00 0.00 0.00 69 1021.3
20181018015635 55 121 0.0 0.0 0.00 0.00 0.00 70 1021.3
20181018015132 55 171 0.0 0.0 0.00 0.00 0.00 69 1021.7
20181018014633 55 180 0.0 0.0 0.00 0.00 0.00 70 1021.3
20181018014110 55 181 0.0 0.0 0.00 0.00 0.00 71 1021.0
20181018013623 55 138 0.0 0.0 0.00 0.00 0.00 70 1021.3
20181018013129 55 157 0.0 0.0 0.00 0.00 0.00 72 1021.3
20181018012635 56 171 0.0 0.0 0.00 0.00 0.00 72 1021.0
20181018012130 56 169 0.0 0.0 0.00 0.00 0.00 72 1021.0
20181018011613 56 124 0.0 0.0 0.00 0.00 0.00 71 1021.0
20181018011123 56 158 0.0 0.0 0.00 0.00 0.00 69 1021.3
20181018010630 57 178 0.0 0.0 0.00 0.00 0.00 68 1021.3
20181018010117 57 135 0.0 0.0 0.00 0.00 0.00 68 1021.0
20181018005610 57 138 0.0 0.0 0.00 0.00 0.00 68 1021.3
20181018005114 57 138 0.0 0.0 0.00 0.00 0.00 67 1021.0
20181018004624 57 187 0.0 0.0 0.00 0.00 0.00 68 1021.3
20181018004108 57 139 0.0 0.0 0.00 0.00 0.00 68 1021.0
20181018003629 57 139 0.0 0.0 0.00 0.00 0.00 67 1021.3
20181018003131 57 153 0.0 0.0 0.00 0.00 0.00 68 1021.0
20181018002610 57 134 0.0 0.0 0.00 0.00 0.00 67 1021.0
20181018002132 57 134 0.0 0.0 0.00 0.00 0.00 67 1021.3
20181018001625 57 156 0.0 0.0 0.00 0.00 0.00 66 1021.0
20181018001111 57 143 0.0 0.0 0.00 0.00 0.00 66 1021.0
20181018000628 57 166 0.0 0.0 0.00 0.00 0.00 66 1021.0
20181018000115 57 134 0.0 0.0 0.00 0.00 0.00 66 1021.0
20181017235612 58 6 0.0 0.0 0.00 0.00 0.00 66 1020.7
20181017235114 58 6 0.0 0.0 0.00 0.00 0.00 66 1020.7
20181017234632 58 106 0.0 0.0 0.00 0.00 0.00 65 1020.7
20181017234125 58 134 0.0 0.0 0.00 0.00 0.00 64 1020.7
20181017233622 59 120 1.0 1.0 0.00 0.00 0.00 63 1020.7
20181017233125 59 185 0.0 0.0 0.00 0.00 0.00 64 1020.7
20181017232613 59 117 0.0 0.0 0.00 0.00 0.00 63 1020.7
20181017232132 60 152 0.0 1.0 0.00 0.00 0.00 62 1020.7
20181017231612 60 113 0.0 1.0 0.00 0.00 0.00 63 1020.7
20181017231109 60 188 0.0 0.0 0.00 0.00 0.00 62 1020.7
20181017230630 60 149 0.0 0.0 0.00 0.00 0.00 64 1020.7
20181017230117 60 154 0.0 0.0 0.00 0.00 0.00 62 1020.3
20181017225610 61 150 0.0 1.0 0.00 0.00 0.00 61 1020.3
20181017225116 61 141 0.0 0.0 0.00 0.00 0.00 61 1020.0
20181017224627 62 150 0.0 0.0 0.00 0.00 0.00 61 1020.7
20181017224110 62 149 0.0 1.0 0.00 0.00 0.00 60 1020.3
20181017223616 63 144 0.0 0.0 0.00 0.00 0.00 61 1020.0
20181017223125 64 146 0.0 0.0 0.00 0.00 0.00 58 1020.0
20181017222635 65 164 0.0 0.0 0.00 0.00 0.00 58 1020.0
20181017222117 65 164 0.0 0.0 0.00 0.00 0.00 58 1020.0
20181017221628 65 174 1.0 2.0 0.00 0.00 0.00 55 1020.0
20181017221108 66 148 0.0 0.0 0.00 0.00 0.00 55 1020.0
20181017220624 66 133 0.0 1.0 0.00 0.00 0.00 54 1020.0
20181017220126 66 220 0.0 0.0 0.00 0.00 0.00 56 1020.0
20181017215625 67 158 0.0 0.0 0.00 0.00 0.00 54 1020.0
20181017215613 67 159 1.0 2.0 0.00 0.00 0.00 52 1020.0
20181017214124 68 129 0.0 1.0 0.00 0.00 0.00 49 1020.0
20181017213126 67 170 0.0 1.0 0.00 0.00 0.00 51 1019.6
20181017210721 66 169 0.0 1.0 0.00 0.00 0.00 53 1019.3
20181017203727 66 181 0.0 0.0 0.00 0.00 0.00 53 1019.6
20181017200111 66 36 0.0 0.0 0.00 0.00 0.00 48 1019.6
20181017195610 67 154 0.0 0.0 0.00 0.00 0.00 51 1020.0
20181017195134 68 46 0.0 1.0 0.00 0.00 0.00 48 1020.0
20181017194626 68 155 0.0 0.0 0.00 0.00 0.00 49 1020.0
20181017194125 68 137 0.0 0.0 0.00 0.00 0.00 52 1019.6
20181017193616 66 109 1.0 1.0 0.00 0.00 0.00 50 1019.6
20181017193108 66 109 0.0 0.0 0.00 0.00 0.00 52 1019.6
20181017192611 67 68 1.0 1.0 0.00 0.00 0.00 50 1019.6
20181017192116 67 101 1.0 1.0 0.00 0.00 0.00 52 1019.6
20181017191614 67 164 0.0 0.0 0.00 0.00 0.00 54 1020.0
20181017191112 66 169 0.0 0.0 0.00 0.00 0.00 53 1020.0
20181017190614 66 103 0.0 0.0 0.00 0.00 0.00 52 1020.0
20181017190111 67 190 1.0 1.0 0.00 0.00 0.00 51 1020.3
20181017185625 67 211 2.0 3.0 0.00 0.00 0.00 48 1020.3
20181017185113 67 122 1.0 2.0 0.00 0.00 0.00 50 1020.3
20181017184623 67 161 0.0 0.0 0.00 0.00 0.00 50 1020.3
20181017184111 66 166 1.0 1.0 0.00 0.00 0.00 50 1020.3
20181017183639 65 157 0.0 0.0 0.00 0.00 0.00 52 1020.3
20181017183111 65 143 0.0 0.0 0.00 0.00 0.00 52 1020.3
20181017182611 66 162 1.0 1.0 0.00 0.00 0.00 51 1020.3
20181017182115 66 95 1.0 1.0 0.00 0.00 0.00 50 1020.7
20181017181631 66 176 0.0 0.0 0.00 0.00 0.00 52 1020.3
20181017181110 65 216 1.0 1.0 0.00 0.00 0.00 56 1020.7
20181017180624 65 107 1.0 1.0 0.00 0.00 0.00 56 1020.7
20181017180112 64 123 1.0 1.0 0.00 0.00 0.00 57 1020.7
20181017175611 65 138 4.0 7.0 0.00 0.00 0.00 54 1021.0
20181017175115 64 148 0.0 1.0 0.00 0.00 0.00 56 1021.0
20181017174612 64 60 1.0 1.0 0.00 0.00 0.00 55 1021.0
20181017174123 63 26 1.0 1.0 0.00 0.00 0.00 58 1021.0
20181017173624 62 208 3.0 5.0 0.00 0.00 0.00 57 1021.3
20181017173112 61 167 1.0 1.0 0.00 0.00 0.00 60 1021.3
20181017172632 61 98 0.0 1.0 0.00 0.00 0.00 61 1021.3
20181017172122 61 157 0.0 1.0 0.00 0.00 0.00 60 1021.3
20181017171611 61 216 1.0 1.0 0.00 0.00 0.00 63 1021.3
20181017171110 60 106 0.0 0.0 0.00 0.00 0.00 63 1021.7
20181017170622 60 143 1.0 2.0 0.00 0.00 0.00 61 1021.3
20181017170114 60 76 0.0 1.0 0.00 0.00 0.00 62 1021.3
20181017165612 59 164 0.0 0.0 0.00 0.00 0.00 63 1021.3
20181017165113 59 120 1.0 1.0 0.00 0.00 0.00 63 1021.3
20181017164612 59 123 0.0 0.0 0.00 0.00 0.00 65 1021.3
20181017164134 58 187 0.0 1.0 0.00 0.00 0.00 63 1021.3
20181017163611 58 107 1.0 2.0 0.00 0.00 0.00 64 1021.3
20181017163127 58 138 0.0 1.0 0.00 0.00 0.00 65 1021.3
20181017162627 58 173 0.0 0.0 0.00 0.00 0.00 66 1021.3
20181017162129 57 117 1.0 1.0 0.00 0.00 0.00 67 1021.3
20181017161610 57 203 1.0 1.0 0.00 0.00 0.00 68 1021.3
20181017161108 56 3 0.0 0.0 0.00 0.00 0.00 70 1021.3
20181017160623 56 122 0.0 0.0 0.00 0.00 0.00 69 1021.0
20181017160112 56 132 0.0 1.0 0.00 0.00 0.00 66 1021.0
20181017155609 55 118 0.0 0.0 0.00 0.00 0.00 69 1021.3
20181017155113 54 174 0.0 0.0 0.00 0.00 0.00 67 1021.3
20181017154624 54 155 0.0 1.0 0.00 0.00 0.00 70 1021.3
20181017154107 53 133 0.0 1.0 0.00 0.00 0.00 70 1021.3
20181017153626 53 116 0.0 0.0 0.00 0.00 0.00 72 1021.3
20181017153124 52 171 1.0 1.0 0.00 0.00 0.00 72 1021.3
20181017152628 52 109 0.0 0.0 0.00 0.00 0.00 75 1021.3
20181017152132 52 175 0.0 0.0 0.00 0.00 0.00 73 1021.0
20181017151605 51 129 0.0 0.0 0.00 0.00 0.00 69 1021.3
20181017151133 52 12 0.0 0.0 0.00 0.00 0.00 73 1020.7
20181017150625 51 167 0.0 1.0 0.00 0.00 0.00 75 1021.0
20181017150114 50 167 1.0 2.0 0.00 0.00 0.00 72 1021.0
20181017145602 50 208 0.0 1.0 0.00 0.00 0.00 75 1020.7
20181017145128 50 209 0.0 0.0 0.00 0.00 0.00 78 1021.0
20181017144607 49 209 0.0 0.0 0.00 0.00 0.00 80 1020.7
20181017144127 48 208 0.0 0.0 0.00 0.00 0.00 81 1020.7
20181017143605 48 209 0.0 0.0 0.00 0.00 0.00 83 1020.7
20181017143107 47 208 0.0 0.0 0.00 0.00 0.00 86 1020.7
20181017142604 46 208 0.0 0.0 0.00 0.00 0.00 87 1020.7
20181017142107 45 209 0.0 0.0 0.00 0.00 0.00 95 1020.7
20181017141632 44 209 0.0 0.0 0.00 0.00 0.00 99 1020.3
20181017141106 44 208 0.0 0.0 0.00 0.00 0.00 99 1020.3
20181017140602 44 208 0.0 0.0 0.00 0.00 0.00 99 1020.3
20181017140112 44 208 0.0 0.0 0.00 0.00 0.00 99 1020.3
20181017135623 43 208 0.0 0.0 0.00 0.00 0.00 99 1020.3
20181017135105 42 208 0.0 0.0 0.00 0.00 0.00 99 1020.3
20181017134629 42 208 0.0 0.0 0.00 0.00 0.00 99 1020.3
20181017134101 41 208 0.0 0.0 0.00 0.00 0.00 99 1020.0
20181017133623 41 208 0.0 0.0 0.00 0.00 0.00 99 1020.0
20181017133128 40 208 0.0 0.0 0.00 0.00 0.00 99 1020.0
20181017132607 40 208 0.0 0.0 0.00 0.00 0.00 99 1020.0
20181017132131 39 208 0.0 0.0 0.00 0.00 0.00 99 1020.0
20181017131626 39 208 0.0 0.0 0.00 0.00 0.00 99 1020.0
20181017131059 39 208 0.0 0.0 0.00 0.00 0.00 99 1020.0
20181017130626 39 208 0.0 0.0 0.00 0.00 0.00 99 1019.6
20181017130102 39 208 0.0 0.0 0.00 0.00 0.00 99 1019.6
20181017125628 39 208 0.0 0.0 0.00 0.00 0.00 99 1019.3
20181017125100 40 207 0.0 0.0 0.00 0.00 0.00 99 1019.6
20181017124600 40 208 0.0 0.0 0.00 0.00 0.00 99 1019.3
20181017124059 40 207 0.0 0.0 0.00 0.00 0.00 99 1019.0
20181017123627 40 207 0.0 0.0 0.00 0.00 0.00 99 1019.3
20181017123129 40 207 0.0 0.0 0.00 0.00 0.00 99 1019.3
20181017122631 40 207 0.0 0.0 0.00 0.00 0.00 99 1019.0
20181017122134 40 207 0.0 0.0 0.00 0.00 0.00 99 1019.0
20181017121623 40 207 0.0 0.0 0.00 0.00 0.00 99 1019.0
20181017121125 40 207 0.0 0.0 0.00 0.00 0.00 99 1019.0
20181017120601 39 207 0.0 0.0 0.00 0.00 0.00 99 1019.0
20181017120124 39 207 0.0 0.0 0.00 0.00 0.00 99 1019.0
20181017115559 39 207 0.0 0.0 0.00 0.00 0.00 99 1019.0
20181017115133 39 208 0.0 0.0 0.00 0.00 0.00 99 1019.0
20181017114556 39 207 0.0 0.0 0.00 0.00 0.00 99 1019.0
20181017114132 39 207 0.0 0.0 0.00 0.00 0.00 99 1018.6
20181017113553 39 207 0.0 0.0 0.00 0.00 0.00 99 1018.6
20181017113053 39 207 0.0 0.0 0.00 0.00 0.00 99 1018.6
20181017112626 40 207 0.0 0.0 0.00 0.00 0.00 99 1018.6
20181017112052 39 207 0.0 0.0 0.00 0.00 0.00 99 1018.6
20181017111600 39 207 0.0 0.0 0.00 0.00 0.00 99 1018.3
20181017111056 40 208 0.0 0.0 0.00 0.00 0.00 99 1018.3
20181017110557 40 207 0.0 0.0 0.00 0.00 0.00 99 1018.3
20181017110126 40 207 0.0 0.0 0.00 0.00 0.00 99 1018.3
20181017105633 40 207 0.0 0.0 0.00 0.00 0.00 99 1018.3
20181017105134 40 207 0.0 0.0 0.00 0.00 0.00 99 1018.3
20181017104559 40 207 0.0 0.0 0.00 0.00 0.00 99 1018.3
20181017104059 40 207 0.0 0.0 0.00 0.00 0.00 99 1018.3
20181017103556 40 207 0.0 0.0 0.00 0.00 0.00 99 1018.3
20181017103126 41 207 0.0 0.0 0.00 0.00 0.00 99 1018.3
20181017102554 41 207 0.0 0.0 0.00 0.00 0.00 99 1018.3
20181017102126 41 207 0.0 0.0 0.00 0.00 0.00 99 1018.3
20181017101556 41 207 0.0 0.0 0.00 0.00 0.00 99 1018.3
20181017101124 41 207 0.0 0.0 0.00 0.00 0.00 99 1018.3
20181017100628 41 208 0.0 0.0 0.00 0.00 0.00 99 1018.3
20181017100128 41 208 0.0 0.0 0.00 0.00 0.00 99 1018.3
20181017095600 41 208 0.0 0.0 0.00 0.00 0.00 99 1018.3
20181017095120 41 208 0.0 0.0 0.00 0.00 0.00 99 1018.3
20181017094600 40 208 0.0 0.0 0.00 0.00 0.00 99 1017.9
20181017094128 40 207 0.0 0.0 0.00 0.00 0.00 99 1018.3
20181017093558 40 207 0.0 0.0 0.00 0.00 0.00 99 1017.9
20181017093128 40 208 0.0 0.0 0.00 0.00 0.00 99 1017.9
20181017092624 40 208 0.0 0.0 0.00 0.00 0.00 99 1017.9
20181017092138 41 208 0.0 0.0 0.00 0.00 0.00 99 1017.9
20181017091559 41 208 0.0 0.0 0.00 0.00 0.00 99 1017.9
20181017091128 41 208 0.0 0.0 0.00 0.00 0.00 99 1017.9
20181017090626 41 207 0.0 0.0 0.00 0.00 0.00 99 1017.9
20181017090101 41 208 0.0 0.0 0.00 0.00 0.00 99 1017.9
20181017085628 41 208 0.0 0.0 0.00 0.00 0.00 99 1017.9
20181017085134 41 207 0.0 0.0 0.00 0.00 0.00 99 1017.9
20181017084630 41 208 0.0 0.0 0.00 0.00 0.00 99 1017.9
20181017084131 41 208 0.0 0.0 0.00 0.00 0.00 99 1017.9
20181017083634 41 208 0.0 0.0 0.00 0.00 0.00 99 1017.9
20181017083127 41 207 0.0 0.0 0.00 0.00 0.00 99 1017.9
20181017082624 41 208 0.0 0.0 0.00 0.00 0.00 99 1017.6
20181017082102 41 208 0.0 0.0 0.00 0.00 0.00 99 1017.6
20181017081559 41 208 0.0 0.0 0.00 0.00 0.00 99 1017.9
20181017081127 41 208 0.0 0.0 0.00 0.00 0.00 99 1017.9
20181017080556 41 207 0.0 0.0 0.00 0.00 0.00 99 1017.9
20181017080124 41 208 0.0 0.0 0.00 0.00 0.00 99 1017.9
20181017075621 41 208 0.0 0.0 0.00 0.00 0.00 99 1017.6
20181017075128 41 208 0.0 0.0 0.00 0.00 0.00 99 1017.6
20181017074627 41 208 0.0 0.0 0.00 0.00 0.00 99 1017.6
20181017074127 41 208 0.0 0.0 0.00 0.00 0.00 99 1017.6
20181017073627 41 208 0.0 0.0 0.00 0.00 0.00 99 1017.6
20181017073129 42 208 0.0 0.0 0.00 0.00 0.00 99 1017.6
20181017072642 42 208 0.0 0.0 0.00 0.00 0.00 99 1017.6
20181017072100 42 208 0.0 0.0 0.00 0.00 0.00 99 1017.6
20181017071632 42 208 0.0 0.0 0.00 0.00 0.00 99 1017.3
20181017071127 42 208 0.0 0.0 0.00 0.00 0.00 99 1017.3
20181017070630 42 208 0.0 0.0 0.00 0.00 0.00 98 1017.3
20181017070132 43 208 0.0 0.0 0.00 0.00 0.00 99 1017.3
20181017065601 43 208 0.0 1.0 0.00 0.00 0.00 99 1017.3
20181017065102 43 208 0.0 0.0 0.00 0.00 0.00 99 1017.3
20181017064628 43 208 0.0 0.0 0.00 0.00 0.00 99 1017.3
20181017064058 43 206 0.0 0.0 0.00 0.00 0.00 99 1016.9
20181017063601 43 206 0.0 0.0 0.00 0.00 0.00 99 1016.9
20181017063129 43 206 0.0 0.0 0.00 0.00 0.00 99 1016.9
20181017062628 43 206 0.0 0.0 0.00 0.00 0.00 98 1016.9
20181017062137 43 206 0.0 0.0 0.00 0.00 0.00 98 1016.9
20181017061602 43 206 0.0 0.0 0.00 0.00 0.00 98 1016.9
20181017061127 43 206 0.0 0.0 0.00 0.00 0.00 98 1016.9
20181017060632 43 206 0.0 0.0 0.00 0.00 0.00 98 1016.9
20181017060125 43 206 0.0 0.0 0.00 0.00 0.00 97 1016.9
20181017055623 44 206 0.0 0.0 0.00 0.00 0.00 97 1017.3
20181017055129 44 206 0.0 0.0 0.00 0.00 0.00 97 1017.3
20181017054629 44 206 0.0 0.0 0.00 0.00 0.00 97 1016.9
20181017054130 44 206 0.0 0.0 0.00 0.00 0.00 96 1017.3
20181017053605 44 206 0.0 0.0 0.00 0.00 0.00 96 1016.6
20181017053104 44 206 0.0 0.0 0.00 0.00 0.00 96 1016.9
20181017052600 44 207 0.0 0.0 0.00 0.00 0.00 96 1016.9
20181017052107 44 206 0.0 0.0 0.00 0.00 0.00 96 1016.9
20181017051606 44 207 0.0 0.0 0.00 0.00 0.00 96 1017.3
20181017051104 44 206 0.0 0.0 0.00 0.00 0.00 96 1017.3
20181017050611 44 207 0.0 0.0 0.00 0.00 0.00 96 1017.3